CW3195 Weather Reports


time (UTC)temp
C
wind
direction
speed
KPH
gust
KPH
rain 1hr
cm
rain 24hr
cm
rain mn
cm
humidity
%
barometer
mb
20260906233841 27 271 4.8 0.0 0.00 0.00 0.00 22 1023.1
20260906233351 27 265 4.8 0.0 0.00 0.00 0.00 23 1023.1
20260906232831 26 233 4.8 0.0 0.00 0.00 0.00 24 1023.1
20260906232339 26 229 4.8 0.0 0.00 0.00 0.00 24 1023.1
20260906231843 27 260 6.4 0.0 0.00 0.00 0.00 23 1023.1
20260906231351 27 271 4.8 0.0 0.00 0.00 0.00 23 1022.8
20260906230841 27 247 4.8 0.0 0.00 0.00 0.00 23 1022.8
20260906230343 27 243 4.8 0.0 0.00 0.00 0.00 23 1022.8
20260906225829 27 240 4.8 0.0 0.00 0.00 0.00 23 1022.9
20260906225329 27 241 4.8 0.0 0.00 0.00 0.00 24 1022.9
20260906224859 27 252 6.4 0.0 0.00 0.00 0.00 23 1022.9
20260906224407 27 240 6.4 0.0 0.00 0.00 0.00 23 1023.4
20260906223828 28 235 6.4 0.0 0.00 0.00 0.00 22 1023.4
20260906223337 28 202 6.4 0.0 0.00 0.00 0.00 22 1023.4
20260906222906 27 269 6.4 0.0 0.00 0.00 0.00 23 1023.1
20260906222355 27 278 8.0 0.0 0.00 0.00 0.00 23 1023.1
20260906221838 27 251 8.0 0.0 0.00 0.00 0.00 22 1023.1
20260906221346 27 254 6.4 0.0 0.00 0.00 0.00 22 1023.2
20260906220847 28 270 4.8 0.0 0.00 0.00 0.00 22 1023.2
20260906220356 27 203 4.8 0.0 0.00 0.00 0.00 22 1023.2
20260906215846 27 227 4.8 0.0 0.00 0.00 0.00 22 1023.8
20260906215347 27 233 4.8 0.0 0.00 0.00 0.00 22 1023.8
20260906214831 27 262 6.4 0.0 0.00 0.00 0.00 23 1023.8
20260906214338 27 262 6.4 0.0 0.00 0.00 0.00 23 1024.0
20260906213847 27 229 6.4 0.0 0.00 0.00 0.00 23 1024.0
20260906213330 27 233 6.4 0.0 0.00 0.00 0.00 23 1024.0
20260906212838 27 218 6.4 0.0 0.00 0.00 0.00 24 1023.7
20260906212347 27 187 8.0 0.0 0.00 0.00 0.00 24 1023.7
20260906211830 27 255 8.0 0.0 0.00 0.00 0.00 23 1023.7
20260906211338 27 224 4.8 0.0 0.00 0.00 0.00 22 1023.7
20260906210907 28 222 4.8 0.0 0.00 0.00 0.00 22 1023.7
20260906210331 28 181 6.4 0.0 0.00 0.00 0.00 22 1023.7
20260906205840 28 203 4.8 0.0 0.00 0.00 0.00 22 1023.6
20260906205341 28 200 4.8 0.0 0.00 0.00 0.00 22 1023.6
20260906204844 28 186 6.4 0.0 0.00 0.00 0.00 22 1023.6
20260906204331 28 234 6.4 0.0 0.00 0.00 0.00 22 1024.2
20260906203901 29 207 8.0 0.0 0.00 0.00 0.00 21 1024.2
20260906203348 29 191 6.4 0.0 0.00 0.00 0.00 21 1024.2
20260906202855 29 210 6.4 0.0 0.00 0.00 0.00 21 1024.2
20260906202331 29 168 6.4 0.0 0.00 0.00 0.00 21 1024.2
20260906201839 29 179 4.8 0.0 0.00 0.00 0.00 22 1024.2
20260906201347 29 191 4.8 0.0 0.00 0.00 0.00 22 1024.0
20260906200845 29 250 3.2 0.0 0.00 0.00 0.00 22 1024.0
20260906200331 28 218 4.8 0.0 0.00 0.00 0.00 22 1024.0
20260906195836 27 184 6.4 0.0 0.00 0.00 0.00 25 1024.5
20260906195336 27 251 6.4 0.0 0.00 0.00 0.00 25 1024.5
20260906194836 27 233 8.0 0.0 0.00 0.00 0.00 23 1024.5
20260906194334 28 233 6.4 0.0 0.00 0.00 0.00 22 1024.9
20260906193842 27 195 6.4 0.0 0.00 0.00 0.00 24 1024.9
20260906193331 27 245 6.4 0.0 0.00 0.00 0.00 24 1024.9
20260906192830 27 181 6.4 0.0 0.00 0.00 0.00 24 1025.0
20260906192339 27 167 8.0 0.0 0.00 0.00 0.00 24 1025.0
20260906191847 27 231 8.0 0.0 0.00 0.00 0.00 24 1025.0
20260906191355 27 220 6.4 0.0 0.00 0.00 0.00 23 1024.7
20260906190835 27 248 6.4 0.0 0.00 0.00 0.00 22 1024.7
20260906190343 27 221 6.4 0.0 0.00 0.00 0.00 24 1024.7
20260906185831 27 221 6.4 0.0 0.00 0.00 0.00 23 1024.8
20260906185331 27 200 6.4 0.0 0.00 0.00 0.00 22 1024.8
20260906184832 27 181 4.8 0.0 0.00 0.00 0.00 22 1024.8
20260906184338 27 251 4.8 0.0 0.00 0.00 0.00 22 1025.7
20260906183841 27 190 4.8 0.0 0.00 0.00 0.00 22 1025.7
20260906183349 27 231 4.8 0.0 0.00 0.00 0.00 23 1025.7
20260906182829 27 181 4.8 0.0 0.00 0.00 0.00 22 1025.2
20260906182334 27 210 3.2 0.0 0.00 0.00 0.00 21 1025.2
20260906181841 27 230 4.8 0.0 0.00 0.00 0.00 23 1025.2
20260906181339 26 240 4.8 0.0 0.00 0.00 0.00 23 1026.0
20260906180828 26 184 6.4 0.0 0.00 0.00 0.00 23 1026.0
20260906180339 25 224 6.4 0.0 0.00 0.00 0.00 24 1026.0
20260906175840 26 162 6.4 0.0 0.00 0.00 0.00 24 1026.0
20260906175407 26 226 4.8 0.0 0.00 0.00 0.00 23 1026.0
20260906174828 26 212 4.8 0.0 0.00 0.00 0.00 23 1026.0
20260906174338 26 235 6.4 0.0 0.00 0.00 0.00 23 1026.4
20260906173846 26 205 4.8 0.0 0.00 0.00 0.00 23 1026.4
20260906173354 26 248 6.4 0.0 0.00 0.00 0.00 22 1026.4
20260906172832 26 213 6.4 0.0 0.00 0.00 0.00 22 1025.8
20260906172339 27 195 3.2 0.0 0.00 0.00 0.00 21 1025.8
20260906171833 27 255 1.6 0.0 0.00 0.00 0.00 21 1025.8
20260906171348 27 252 3.2 0.0 0.00 0.00 0.00 19 1025.9
20260906170848 26 188 3.2 0.0 0.00 0.00 0.00 19 1025.9
20260906170335 26 264 3.2 0.0 0.00 0.00 0.00 19 1025.9
20260906165842 26 253 3.2 0.0 0.00 0.00 0.00 18 1026.3
20260906165341 26 234 3.2 0.0 0.00 0.00 0.00 19 1026.3
20260906164909 26 229 3.2 0.0 0.00 0.00 0.00 19 1026.3
20260906164345 26 223 3.2 0.0 0.00 0.00 0.00 19 1026.6
20260906163833 26 232 3.2 0.0 0.00 0.00 0.00 19 1026.6
20260906163338 26 223 4.8 0.0 0.00 0.00 0.00 18 1026.6
20260906162904 25 155 4.8 0.0 0.00 0.00 0.00 18 1026.1
20260906162330 25 223 3.2 0.0 0.00 0.00 0.00 19 1026.1
20260906161853 25 198 3.2 0.0 0.00 0.00 0.00 18 1026.1
20260906161353 24 236 3.2 0.0 0.00 0.00 0.00 19 1025.9
20260906160908 24 207 3.2 0.0 0.00 0.00 0.00 19 1025.9
20260906160345 23 184 1.6 0.0 0.00 0.00 0.00 20 1025.9
20260906155834 23 244 1.6 0.0 0.00 0.00 0.00 20 1026.9
20260906155334 23 232 1.6 0.0 0.00 0.00 0.00 19 1026.9
20260906154844 23 221 1.6 0.0 0.00 0.00 0.00 18 1026.9
20260906154413 23 184 1.6 0.0 0.00 0.00 0.00 18 1026.1
20260906153903 24 180 3.2 0.0 0.00 0.00 0.00 17 1026.1
20260906153349 25 174 1.6 0.0 0.00 0.00 0.00 18 1026.1
20260906152912 24 227 1.6 0.0 0.00 0.00 0.00 17 1025.8
20260906152332 24 181 1.6 0.0 0.00 0.00 0.00 18 1025.8
20260906151839 24 185 1.6 0.0 0.00 0.00 0.00 18 1025.8
20260906151346 23 172 1.6 0.0 0.00 0.00 0.00 19 1026.6
20260906150856 23 174 1.6 0.0 0.00 0.00 0.00 18 1026.6
20260906150336 23 112 1.6 0.0 0.00 0.00 0.00 18 1026.6
20260906145842 23 110 0.0 0.0 0.00 0.00 0.00 19 1026.0
20260906145401 23 110 0.0 0.0 0.00 0.00 0.00 20 1026.0
20260906144846 22 61 0.0 0.0 0.00 0.00 0.00 20 1026.0
20260906144353 21 60 0.0 0.0 0.00 0.00 0.00 24 1025.7
20260906143831 20 61 0.0 0.0 0.00 0.00 0.00 24 1025.7
20260906143338 19 60 0.0 0.0 0.00 0.00 0.00 27 1025.7
20260906142845 18 60 1.6 0.0 0.00 0.00 0.00 29 1026.3
20260906142344 17 61 1.6 0.0 0.00 0.00 0.00 34 1026.3
20260906141830 16 61 1.6 0.0 0.00 0.00 0.00 36 1026.3
20260906141339 16 61 0.0 0.0 0.00 0.00 0.00 35 1025.8
20260906140845 16 61 0.0 0.0 0.00 0.00 0.00 34 1025.8
20260906140354 16 61 0.0 0.0 0.00 0.00 0.00 32 1025.8
20260906135838 16 61 0.0 0.0 0.00 0.00 0.00 31 1025.8
20260906135338 17 61 0.0 0.0 0.00 0.00 0.00 32 1025.8
20260906134845 17 61 0.0 0.0 0.00 0.00 0.00 32 1025.8
20260906134355 16 61 0.0 0.0 0.00 0.00 0.00 31 1026.1
20260906133832 16 61 0.0 0.0 0.00 0.00 0.00 31 1026.1
20260906133340 16 61 0.0 0.0 0.00 0.00 0.00 30 1026.1
20260906132846 16 61 0.0 0.0 0.00 0.00 0.00 30 1025.9
20260906132354 15 61 0.0 0.0 0.00 0.00 0.00 32 1025.9
20260906131830 15 61 0.0 0.0 0.00 0.00 0.00 31 1025.9
20260906131339 14 61 0.0 0.0 0.00 0.00 0.00 31 1025.5
20260906130851 14 61 1.6 0.0 0.00 0.00 0.00 32 1025.5
20260906130355 13 61 3.2 0.0 0.00 0.00 0.00 34 1025.5
20260906125835 13 61 3.2 0.0 0.00 0.00 0.00 35 1025.8
20260906125343 13 65 3.2 0.0 0.00 0.00 0.00 36 1025.8
20260906124912 13 70 3.2 0.0 0.00 0.00 0.00 35 1025.8
20260906124400 13 60 3.2 0.0 0.00 0.00 0.00 34 1025.5
20260906123839 13 67 1.6 0.0 0.00 0.00 0.00 33 1025.5
20260906123416 14 64 3.2 0.0 0.00 0.00 0.00 33 1025.5
20260906122834 14 68 3.2 0.0 0.00 0.00 0.00 32 1025.4
20260906122343 14 48 3.2 0.0 0.00 0.00 0.00 31 1025.4
20260906121853 14 53 3.2 0.0 0.00 0.00 0.00 32 1025.4
20260906121332 14 46 3.2 0.0 0.00 0.00 0.00 32 1025.0
20260906120839 14 67 3.2 0.0 0.00 0.00 0.00 32 1025.0
20260906120340 13 43 3.2 0.0 0.00 0.00 0.00 32 1025.0
20260906115851 13 56 3.2 0.0 0.00 0.00 0.00 33 1025.0
20260906115328 13 59 3.2 0.0 0.00 0.00 0.00 35 1025.0
20260906114838 12 63 3.2 0.0 0.00 0.00 0.00 36 1025.0
20260906114348 12 58 1.6 0.0 0.00 0.00 0.00 36 1024.6
20260906113838 12 59 1.6 0.0 0.00 0.00 0.00 38 1024.6
20260906113339 12 61 1.6 0.0 0.00 0.00 0.00 39 1024.6
20260906112847 12 65 1.6 0.0 0.00 0.00 0.00 40 1025.1
20260906112336 12 54 1.6 0.0 0.00 0.00 0.00 38 1025.1
20260906111839 12 57 1.6 0.0 0.00 0.00 0.00 39 1025.1
20260906111345 12 57 1.6 0.0 0.00 0.00 0.00 40 1025.3
20260906110832 12 68 0.0 0.0 0.00 0.00 0.00 40 1025.3
20260906110338 13 70 1.6 0.0 0.00 0.00 0.00 38 1025.3
20260906105841 13 59 1.6 0.0 0.00 0.00 0.00 33 1025.2
20260906105343 14 62 1.6 0.0 0.00 0.00 0.00 31 1025.2
20260906104852 15 64 1.6 0.0 0.00 0.00 0.00 30 1025.2
20260906104352 15 53 1.6 0.0 0.00 0.00 0.00 29 1024.8
20260906103842 15 60 1.6 0.0 0.00 0.00 0.00 29 1024.8
20260906103332 15 71 3.2 0.0 0.00 0.00 0.00 29 1024.8
20260906102831 14 57 3.2 0.0 0.00 0.00 0.00 31 1024.8
20260906102340 13 57 1.6 0.0 0.00 0.00 0.00 31 1024.8
20260906101851 13 56 1.6 0.0 0.00 0.00 0.00 32 1024.8
20260906101335 14 51 1.6 0.0 0.00 0.00 0.00 32 1024.8
20260906100843 14 60 1.6 0.0 0.00 0.00 0.00 31 1024.8
20260906100352 14 71 1.6 0.0 0.00 0.00 0.00 31 1024.8
20260906095859 14 53 1.6 0.0 0.00 0.00 0.00 31 1024.7
20260906095354 13 56 1.6 0.0 0.00 0.00 0.00 32 1024.7
20260906094843 13 62 3.2 0.0 0.00 0.00 0.00 33 1024.7
20260906094352 13 65 3.2 0.0 0.00 0.00 0.00 33 1024.8
20260906093903 13 58 1.6 0.0 0.00 0.00 0.00 33 1024.8
20260906093341 14 62 1.6 0.0 0.00 0.00 0.00 31 1024.8
20260906092831 14 56 1.6 0.0 0.00 0.00 0.00 30 1025.1
20260906092338 15 60 1.6 0.0 0.00 0.00 0.00 29 1025.1
20260906091840 15 56 3.2 0.0 0.00 0.00 0.00 29 1025.1
20260906091343 15 56 3.2 0.0 0.00 0.00 0.00 29 1024.8
20260906090832 14 47 3.2 0.0 0.00 0.00 0.00 30 1024.8
20260906090340 13 50 1.6 0.0 0.00 0.00 0.00 31 1024.8
20260906085842 13 58 1.6 0.0 0.00 0.00 0.00 32 1024.7
20260906085407 13 58 1.6 0.0 0.00 0.00 0.00 33 1024.7
20260906084827 13 65 1.6 0.0 0.00 0.00 0.00 33 1024.7
20260906084335 13 49 1.6 0.0 0.00 0.00 0.00 34 1025.3
20260906083844 13 64 1.6 0.0 0.00 0.00 0.00 34 1025.3
20260906083354 13 64 1.6 0.0 0.00 0.00 0.00 34 1025.3
20260906082853 13 65 1.6 0.0 0.00 0.00 0.00 35 1025.4
20260906082341 13 53 1.6 0.0 0.00 0.00 0.00 36 1025.4
20260906081850 13 52 1.6 0.0 0.00 0.00 0.00 36 1025.4
20260906081329 13 58 3.2 0.0 0.00 0.00 0.00 35 1025.0
20260906080835 13 65 3.2 0.0 0.00 0.00 0.00 32 1025.0
20260906080347 13 58 1.6 0.0 0.00 0.00 0.00 32 1025.0
20260906075829 13 56 1.6 0.0 0.00 0.00 0.00 32 1025.7
20260906075329 13 56 1.6 0.0 0.00 0.00 0.00 33 1025.7
20260906074835 13 60 3.2 0.0 0.00 0.00 0.00 33 1025.7
20260906074343 13 54 3.2 0.0 0.00 0.00 0.00 33 1025.7
20260906073830 13 56 1.6 0.0 0.00 0.00 0.00 32 1025.7
20260906073353 14 55 3.2 0.0 0.00 0.00 0.00 32 1025.7
20260906072832 14 54 3.2 0.0 0.00 0.00 0.00 32 1025.6
20260906072339 14 56 3.2 0.0 0.00 0.00 0.00 31 1025.6
20260906071830 14 54 4.8 0.0 0.00 0.00 0.00 31 1025.6
20260906071330 14 49 3.2 0.0 0.00 0.00 0.00 31 1025.4
20260906070838 14 47 3.2 0.0 0.00 0.00 0.00 32 1025.4
20260906070345 15 52 3.2 0.0 0.00 0.00 0.00 32 1025.4
20260906065833 14 49 3.2 0.0 0.00 0.00 0.00 32 1025.3
20260906065402 14 46 4.8 0.0 0.00 0.00 0.00 33 1025.3
20260906064851 14 46 3.2 0.0 0.00 0.00 0.00 34 1025.3
20260906064331 14 56 1.6 0.0 0.00 0.00 0.00 35 1025.4
20260906063841 14 54 3.2 0.0 0.00 0.00 0.00 34 1025.4
20260906063410 14 54 4.8 0.0 0.00 0.00 0.00 32 1025.4
20260906062830 15 54 4.8 0.0 0.00 0.00 0.00 32 1025.7
20260906062336 15 43 6.4 0.0 0.00 0.00 0.00 32 1025.7
20260906061907 15 44 6.4 0.0 0.00 0.00 0.00 32 1025.7
20260906061335 14 40 6.4 0.0 0.00 0.00 0.00 33 1025.6
20260906060841 14 46 6.4 0.0 0.00 0.00 0.00 34 1025.6
20260906060330 14 48 4.8 0.0 0.00 0.00 0.00 34 1025.6
20260906055832 14 49 4.8 0.0 0.00 0.00 0.00 35 1025.9
20260906055334 14 49 4.8 0.0 0.00 0.00 0.00 35 1025.9
20260906054845 14 48 4.8 0.0 0.00 0.00 0.00 35 1025.9
20260906054334 14 48 4.8 0.0 0.00 0.00 0.00 35 1026.0
20260906053833 14 47 3.2 0.0 0.00 0.00 0.00 36 1026.0
20260906053343 14 47 4.8 0.0 0.00 0.00 0.00 35 1026.0
20260906052834 14 47 4.8 0.0 0.00 0.00 0.00 35 1025.9
20260906052333 15 47 6.4 0.0 0.00 0.00 0.00 35 1025.9
20260906051842 14 46 6.4 0.0 0.00 0.00 0.00 35 1025.9
20260906051348 14 46 4.8 0.0 0.00 0.00 0.00 35 1025.5
20260906050830 14 46 4.8 0.0 0.00 0.00 0.00 35 1025.5
20260906050340 14 46 4.8 0.0 0.00 0.00 0.00 35 1025.5
20260906045851 14 46 4.8 0.0 0.00 0.00 0.00 35 1025.5
20260906045352 14 44 6.4 0.0 0.00 0.00 0.00 36 1025.5
20260906044834 14 42 6.4 0.0 0.00 0.00 0.00 36 1025.5
20260906044341 14 48 4.8 0.0 0.00 0.00 0.00 36 1025.5
20260906043851 14 53 4.8 0.0 0.00 0.00 0.00 36 1025.5
20260906043332 14 53 4.8 0.0 0.00 0.00 0.00 36 1025.5
20260906042841 14 53 6.4 0.0 0.00 0.00 0.00 36 1025.5
20260906042350 14 70 4.8 0.0 0.00 0.00 0.00 35 1025.5
20260906041829 14 72 4.8 0.0 0.00 0.00 0.00 35 1025.5
20260906041338 14 75 4.8 0.0 0.00 0.00 0.00 35 1025.9
20260906040848 14 75 3.2 0.0 0.00 0.00 0.00 35 1025.9
20260906040356 14 76 1.6 0.0 0.00 0.00 0.00 36 1025.9
20260906035836 15 82 3.2 0.0 0.00 0.00 0.00 35 1025.7
20260906035334 15 82 4.8 0.0 0.00 0.00 0.00 34 1025.7
20260906034840 15 82 4.8 0.0 0.00 0.00 0.00 34 1025.7
20260906034350 15 82 4.8 0.0 0.00 0.00 0.00 34 1025.2
20260906033832 15 82 4.8 0.0 0.00 0.00 0.00 33 1025.2
20260906033342 15 82 4.8 0.0 0.00 0.00 0.00 33 1025.2
20260906032852 15 82 3.2 0.0 0.00 0.00 0.00 33 1025.1
20260906032333 16 136 1.6 0.0 0.00 0.00 0.00 32 1025.1
20260906031849 16 149 0.0 0.0 0.00 0.00 0.00 31 1025.1
20260906031350 16 207 0.0 0.0 0.00 0.00 0.00 31 1024.9
20260906030907 16 207 0.0 0.0 0.00 0.00 0.00 31 1024.9
20260906030416 16 207 0.0 0.0 0.00 0.00 0.00 30 1024.9
20260906025836 16 207 0.0 0.0 0.00 0.00 0.00 29 1025.1
20260906025339 17 207 0.0 0.0 0.00 0.00 0.00 27 1025.1
20260906024845 17 207 0.0 0.0 0.00 0.00 0.00 27 1025.1
20260906024329 18 207 0.0 0.0 0.00 0.00 0.00 27 1024.8
20260906023838 18 207 0.0 0.0 0.00 0.00 0.00 27 1024.8
20260906023349 18 207 0.0 0.0 0.00 0.00 0.00 26 1024.8
20260906022833 18 214 0.0 0.0 0.00 0.00 0.00 26 1025.1
20260906022341 18 215 0.0 0.0 0.00 0.00 0.00 26 1025.1
20260906021852 18 215 0.0 0.0 0.00 0.00 0.00 25 1025.1
20260906021333 20 215 0.0 0.0 0.00 0.00 0.00 24 1024.4
20260906020844 20 215 0.0 0.0 0.00 0.00 0.00 23 1024.4
20260906020355 21 215 0.0 0.0 0.00 0.00 0.00 22 1024.4
20260906015833 21 215 0.0 0.0 0.00 0.00 0.00 22 1024.7
20260906015334 21 215 0.0 0.0 0.00 0.00 0.00 21 1024.7
20260906014844 22 215 0.0 0.0 0.00 0.00 0.00 21 1024.7
20260906014354 22 215 0.0 0.0 0.00 0.00 0.00 21 1025.0
20260906013836 22 215 0.0 0.0 0.00 0.00 0.00 20 1025.0
20260906013344 23 215 0.0 0.0 0.00 0.00 0.00 20 1025.0
20260906012834 23 214 1.6 0.0 0.00 0.00 0.00 19 1025.0
20260906012338 23 212 1.6 0.0 0.00 0.00 0.00 19 1025.0
20260906011910 23 245 1.6 0.0 0.00 0.00 0.00 19 1025.0
20260906011329 23 224 3.2 0.0 0.00 0.00 0.00 19 1025.0
20260906010839 24 234 3.2 0.0 0.00 0.00 0.00 18 1025.0
20260906010349 24 233 3.2 0.0 0.00 0.00 0.00 18 1025.0
20260906005915 25 229 4.8 0.0 0.00 0.00 0.00 17 1024.5
20260906005355 25 248 4.8 0.0 0.00 0.00 0.00 16 1024.5
20260906004857 25 252 3.2 0.0 0.00 0.00 0.00 16 1024.5
20260906004353 25 254 1.6 0.0 0.00 0.00 0.00 15 1024.5
20260906003835 25 252 3.2 0.0 0.00 0.00 0.00 15 1024.5
20260906003342 25 248 4.8 0.0 0.00 0.00 0.00 15 1024.5
20260906002851 25 214 4.8 0.0 0.00 0.00 0.00 16 1024.7
20260906002333 25 240 4.8 0.0 0.00 0.00 0.00 16 1024.7
20260906001841 26 218 6.4 0.0 0.00 0.00 0.00 16 1024.7
20260906001338 26 188 6.4 0.0 0.00 0.00 0.00 16 1024.8
20260906000844 26 221 6.4 0.0 0.00 0.00 0.00 16 1024.8
20260906000355 26 217 6.4 0.0 0.00 0.00 0.00 16 1024.8
20260905235841 26 211 6.4 0.0 0.00 0.00 0.00 15 1025.1
20260905235359 26 235 6.4 0.0 0.00 0.00 0.00 15 1025.1
20260905234908 26 263 6.4 0.0 0.00 0.00 0.00 15 1025.1
20260905234334 26 257 3.2 0.0 0.00 0.00 0.00 15 1025.1